Find FSKL5695-12

NORAD ID: 64886 Int'l Des: NNA 2025-155 Owner: RATEKS Country: RU operational
LEOCIRCULARRETROGRADESSO

現在のビュー

3D地球を読み込み中...

About FSKL5695-12

FSKL5695-12 (NORAD 64886) is a satellite launched Jul 25, 2025 by RATEKS of RU. It operates in LEO, CIRCULAR, RETROGRADE, SSO orbit with a mass of 3.00 kg.

次回通過

Passes for default location (London). Set your location on the main map for personalized predictions.

高度履歴

Loading altitude history...

軌道要素

1 64886U 25155L 26195.17190992 .00020188 00000-0 45367-3 0 9998
2 64886 97.4468 166.6602 0009198 78.9270 281.3012 15.43336819 85091
Epoch: Jul 14, 2026 • Age: 9 hours

現在のステータス

高度 457.4 km
遠地点 / 近地点 N/A
速度 7.63 km/s
衛星直下点 -41.78°S, 145.01°W
打ち上げ日 Jul 25, 2025
運用期間 0.9 years
タイプ other

技術仕様

分類 Payload
質量 3.00 kg
乾燥質量 3.00 kg
総質量 3.00 kg
長さ 0.30 m
直径 0.10 m
スパン 0.30 m
形状 Box
製造者 RATEKS
バスタイプ Cubesat 3U
フェーズステータス In Orbit
所有者/国 RATEKS/RU

Most Searched